Location: Ferchesar
(52.6477°N, 12.4298°E)
Time: 00:56:12
(UTC+01:00)

Transit 4A - Pass Details

Date: 07 December 2021
Orbit: 864 x 981 km, 66.8° (Epoch: 19 January)

Event Time Altitude Azimuth Distance (km) Brightness Sun altitude
Rises 18:03:53 0° 183° (S) 3,457 11.1 -18.1°
Reaches altitude 10° 18:06:33 10° 174° (S) 2,536 10.3 -18.5°
Maximum altitude 18:11:42 33° 113° (ESE) 1,474 8.5 -19.3°
Enters shadow 18:12:24 32° 99° (E) 1,504 8.5 -19.4°
